Flag for Mexico

Past Weather in Hermosillo, Sonora, Mexico — Yesterday and Last 2 Weeks

Now
81 °F

Clear.


Feels Like: 84 °F
Forecast: 104 / 74 °F
Wind: 5 mph from Northeast

Location: Hermosillo Airport
Current Time: Sep 25, 2020 at 7:25:09 am
Latest Report: Sep 25, 2020 at 5:41 am
Visibility: 10 mi
Pressure29.91 "Hg
Humidity: 70%
Dew Point: 70 °F
Location of HermosilloLocation

Past Weather in Hermosillo — Graph

°F

Hermosillo Temperature Yesterday

Maximum temperature yesterday: 109 °F (at 1:41 pm)
Minimum temperature yesterday: 73 °F (at 5:40 am)
Average temperature yesterday: 95 °F

High & Low Weather Summary for the Past Weeks

 TemperatureHumidityPressure
High111 °F (Sep 16, 3:40 pm)89% (Sep 15, 4:49 am)30.02 "Hg (Sep 15, 4:49 am)
Low72 °F (Sep 11, 5:40 am)5% (Sep 16, 5:40 pm)29.70 "Hg (Sep 19, 4:40 pm)
Average93 °F36%29.87 "Hg
* Reported Sep 10 5:41 am — Sep 25 5:41 am, Hermosillo. Weather by CustomWeather, © 2020

Note: Actual official high and low records may vary slightly from our data, if they occured in-between our weather recording intervals... More about our weather records

Hermosillo Weather History for the Previous 24 Hours

Scroll right to see more
 ConditionsComfort  
Time TempWeatherWind HumidityBarometerVisibility
5:41 am
Fri, Sep 25
81 °FClear.5 mph70%29.91 "Hg10 mi
4:47 am81 °FClear.5 mph70%29.86 "Hg10 mi
10:40 pm
Thu, Sep 24
88 °FClear.5 mph29%29.82 "Hg10 mi
9:40 pm88 °FClear.5 mph29%29.83 "Hg10 mi
8:40 pm91 °FClear.3 mph24%29.82 "Hg10 mi
7:40 pm95 °FClear.8 mph22%29.76 "Hg10 mi
6:40 pm99 °FClear.13 mph19%29.76 "Hg10 mi
5:40 pm104 °FSunny.16 mph15%29.76 "Hg10 mi
4:40 pm108 °FSunny.9 mph12%29.73 "Hg10 mi
3:40 pm108 °FSunny.8 mph12%29.77 "Hg10 mi
2:40 pm109 °FSunny.12 mph11%29.79 "Hg10 mi
1:41 pm109 °FSunny.9 mph11%29.80 "Hg10 mi
12:42 pm106 °FSunny.No wind13%29.83 "Hg10 mi
11:41 am104 °FSunny.No wind13%29.86 "Hg10 mi
10:41 am100 °FSunny.No wind17%29.85 "Hg10 mi
9:44 am97 °FSunny.5 mph20%29.89 "Hg10 mi
8:40 am90 °FSunny.7 mph29%29.89 "Hg10 mi
7:48 am86 °FSunny.No wind31%29.85 "Hg10 mi
Weather by CustomWeather, © 2020

See weather overview